K4TPD-5 Weather Reports


time (UTC)temp
C
wind
direction
speed
KPH
gust
KPH
rain 1hr
cm
rain 24hr
cm
rain mn
cm
humidity
%
barometer
mb
20260901063556 25 135 0.0 0.0 0.00 0.00 0.00 92 1015.4
20260901063039 25 135 0.0 0.0 0.00 0.00 0.00 92 1015.5
20260901062540 25 135 0.0 0.0 0.00 0.00 0.00 91 1015.5
20260901062043 25 135 0.0 0.0 0.00 0.00 0.00 91 1015.4
20260901061527 25 135 0.0 0.0 0.00 0.00 0.00 91 1015.5
20260901061028 25 135 0.0 0.0 0.00 0.00 0.00 91 1015.5
20260901060531 25 135 0.0 0.0 0.00 0.00 0.00 91 1015.6
20260901060038 26 135 0.0 0.0 0.00 0.00 0.00 91 1015.6
20260901055539 26 135 0.0 0.0 0.00 0.00 0.00 91 1015.7
20260901055040 26 135 0.0 0.0 0.00 0.00 0.00 91 1015.7
20260901054544 26 135 0.0 0.0 0.00 0.00 0.00 91 1015.7
20260901054025 26 135 0.0 0.0 0.00 0.00 0.00 91 1015.8
20260901053527 26 135 0.0 0.0 0.00 0.00 0.00 91 1015.8
20260901053032 26 135 0.0 0.0 0.00 0.00 0.00 90 1015.8
20260901052534 26 135 0.0 0.0 0.00 0.00 0.00 90 1015.9
20260901052036 26 135 0.0 0.0 0.00 0.00 0.00 90 1015.9
20260901051539 26 135 0.0 0.0 0.00 0.00 0.00 89 1016.0
20260901051043 26 135 0.0 0.0 0.00 0.00 0.00 89 1016.0
20260901050528 26 135 0.0 0.0 0.00 0.00 0.00 89 1016.0
20260901050032 26 135 0.0 0.0 0.00 0.00 0.00 89 1016.0
20260901045554 26 135 0.0 0.0 0.00 0.00 0.00 88 1016.0
20260901045037 26 135 0.0 0.0 0.00 0.00 0.00 88 1016.0
20260901044540 27 135 0.0 0.0 0.00 0.00 0.00 88 1016.1
20260901044041 27 135 0.0 0.0 0.00 0.00 0.00 87 1016.0
20260901043543 27 135 0.0 0.0 0.00 0.00 0.00 87 1016.0
20260901043026 27 135 0.0 0.0 0.00 0.00 0.00 88 1016.0
20260901042528 27 135 0.0 0.0 0.00 0.00 0.00 87 1015.9
20260901042031 27 135 0.0 0.0 0.00 0.00 0.00 87 1015.9
20260901041554 27 135 0.0 0.0 0.00 0.00 0.00 87 1016.0
20260901041055 27 135 0.0 0.0 0.00 0.00 0.00 87 1016.1
20260901040536 27 135 0.0 0.0 0.00 0.00 0.00 87 1016.0
20260901040041 27 135 0.0 6.4 0.00 0.00 0.00 87 1016.0
20260901035526 27 135 1.6 6.4 0.00 0.00 0.00 88 1016.1
20260901035049 27 139 3.2 6.4 0.00 0.00 0.00 89 1016.0
20260901034553 26 119 1.6 3.2 0.00 0.00 0.00 89 1016.0
20260901034034 26 103 0.0 3.2 0.00 0.00 0.00 89 1016.0
20260901033537 26 103 0.0 3.2 0.00 0.00 0.00 89 1016.0
20260901033041 26 103 0.0 0.0 0.00 0.00 0.00 89 1016.0
20260901032542 26 103 0.0 0.0 0.00 0.00 0.00 89 1015.9
20260901032025 26 103 0.0 0.0 0.00 0.00 0.00 89 1015.9
20260901031530 26 103 0.0 0.0 0.00 0.00 0.00 89 1015.9
20260901031031 26 103 0.0 0.0 0.00 0.00 0.00 88 1015.9
20260901030534 26 103 0.0 0.0 0.00 0.00 0.00 88 1015.9
20260901030037 26 103 0.0 0.0 0.00 0.00 0.00 88 1015.8
20260901025538 27 103 0.0 1.6 0.00 0.00 0.00 88 1015.9
20260901025102 27 103 0.0 1.6 0.00 0.00 0.00 87 1016.0
20260901024529 27 103 0.0 0.0 0.00 0.00 0.00 87 1015.9
20260901024051 27 103 0.0 0.0 0.00 0.00 0.00 87 1016.0
20260901023551 27 103 0.0 0.0 0.00 0.00 0.00 87 1016.0
20260901023034 27 103 0.0 0.0 0.00 0.00 0.00 86 1016.0
20260901022535 27 103 0.0 0.0 0.00 0.00 0.00 86 1016.0
20260901022038 27 103 0.0 0.0 0.00 0.00 0.00 85 1016.0
20260901021542 27 103 0.0 0.0 0.00 0.00 0.00 85 1016.0
20260901021043 27 103 0.0 0.0 0.00 0.00 0.00 85 1015.9
20260901020525 27 103 0.0 0.0 0.00 0.00 0.00 85 1015.9
20260901020029 27 103 0.0 0.0 0.00 0.00 0.00 84 1015.8
20260901015552 27 103 0.0 0.0 0.00 0.00 0.00 84 1015.7
20260901015033 27 103 0.0 0.0 0.00 0.00 0.00 84 1015.6
20260901014557 27 103 0.0 1.6 0.00 0.00 0.00 83 1015.5
20260901014037 27 103 0.0 1.6 0.00 0.00 0.00 83 1015.5
20260901013539 27 103 0.0 0.0 0.00 0.00 0.00 83 1015.3
20260901013027 27 103 0.0 0.0 0.00 0.00 0.00 83 1015.2
20260901012529 27 103 0.0 3.2 0.00 0.00 0.00 83 1015.2
20260901012051 27 103 0.0 3.2 0.00 0.00 0.00 83 1015.2
20260901011555 27 103 0.0 0.0 0.00 0.00 0.00 83 1015.2
20260901011035 28 103 0.0 0.0 0.00 0.00 0.00 82 1015.1
20260901010538 28 103 0.0 0.0 0.00 0.00 0.00 81 1014.9
20260901010042 28 103 0.0 0.0 0.00 0.00 0.00 80 1014.9
20260901005603 28 103 0.0 0.0 0.00 0.00 0.00 79 1014.8
20260901005024 28 103 0.0 0.0 0.00 0.00 0.00 79 1014.8
20260901004528 28 103 0.0 0.0 0.00 0.00 0.00 79 1014.8
20260901004050 28 103 0.0 0.0 0.00 0.00 0.00 78 1014.8
20260901003532 28 103 0.0 0.0 0.00 0.00 0.00 78 1014.8
20260901003035 28 103 0.0 0.0 0.00 0.00 0.00 77 1014.8
20260901002556 29 103 0.0 0.0 0.00 0.00 0.00 77 1014.6
20260901002037 29 103 0.0 0.0 0.00 0.00 0.00 77 1014.6
20260901001540 29 103 0.0 0.0 0.00 0.00 0.00 76 1014.7
20260901001027 30 103 0.0 0.0 0.00 0.00 0.00 76 1014.6
20260901000528 30 103 0.0 0.0 0.00 0.00 0.00 75 1014.7
20260901000033 30 103 0.0 0.0 0.00 0.00 0.00 74 1014.6
20260831235535 30 103 0.0 0.0 0.00 0.00 0.00 74 1014.6
20260831235037 30 103 0.0 0.0 0.00 0.00 0.00 73 1014.6
20260831234542 30 103 0.0 0.0 0.00 0.00 0.00 73 1014.5
20260831234024 30 103 0.0 0.0 0.00 0.00 0.00 72 1014.4
20260831233546 31 103 0.0 0.0 0.00 0.00 0.00 71 1014.4
20260831233029 31 103 0.0 0.0 0.00 0.00 0.00 71 1014.4
20260831232532 31 103 0.0 0.0 0.00 0.00 0.00 71 1014.4
20260831232034 31 103 0.0 0.0 0.00 0.00 0.00 70 1014.3
20260831231538 31 103 0.0 0.0 0.00 0.00 0.00 70 1014.3
20260831231024 31 103 0.0 0.0 0.00 0.00 0.00 68 1014.3
20260831230527 32 103 0.0 0.0 0.00 0.00 0.00 68 1014.3
20260831230031 32 103 0.0 0.0 0.00 0.00 0.00 66 1014.4
20260831225533 32 103 0.0 0.0 0.00 0.00 0.00 66 1014.5
20260831225055 32 103 0.0 0.0 0.00 0.00 0.00 65 1014.5
20260831224539 32 103 0.0 0.0 0.00 0.00 0.00 66 1014.5
20260831224041 32 103 0.0 0.0 0.00 0.00 0.00 63 1014.5
20260831223541 33 11 0.0 1.6 0.00 0.00 0.00 64 1014.5
20260831223024 33 10 0.0 1.6 0.00 0.00 0.00 64 1014.6
20260831222527 33 9 0.0 3.2 0.00 0.00 0.00 63 1014.6
20260831222029 33 5 0.0 3.2 0.00 0.00 0.00 61 1014.6
20260831221533 33 51 0.0 3.2 0.00 0.00 0.00 62 1014.6
20260831221035 33 84 0.0 9.7 0.00 0.00 0.00 61 1014.7
20260831220541 33 72 1.6 9.7 0.00 0.00 0.00 62 1014.6
20260831220045 34 110 0.0 1.6 0.00 0.00 0.00 61 1014.6
20260831215605 34 139 0.0 1.6 0.00 0.00 0.00 60 1014.6
20260831215025 34 92 0.0 0.0 0.00 0.00 0.00 60 1014.7
20260831214528 34 80 0.0 0.0 0.00 0.00 0.00 60 1014.7
20260831214030 34 74 0.0 1.6 0.00 0.00 0.00 61 1014.7
20260831213532 34 74 0.0 1.6 0.00 0.00 0.00 59 1014.8
20260831213035 34 18 0.0 6.4 0.00 0.00 0.00 60 1014.8
20260831212558 34 18 0.0 6.4 0.00 0.00 0.00 60 1014.8
20260831212040 34 13 0.0 1.6 0.00 0.00 0.00 60 1014.9
20260831211543 34 13 0.0 1.6 0.00 0.00 0.00 62 1014.8
20260831211042 34 307 0.0 3.2 0.00 0.00 0.00 60 1014.8
20260831210525 34 299 0.0 3.2 0.00 0.00 0.00 60 1014.8
20260831210049 33 19 0.0 6.4 0.00 0.00 0.00 62 1014.9
20260831205529 33 15 0.0 6.4 0.00 0.00 0.00 64 1014.9
20260831205051 33 360 0.0 6.4 0.00 0.00 0.00 63 1014.8
20260831204538 33 355 0.0 1.6 0.00 0.00 0.00 63 1014.9
20260831204039 33 61 0.0 3.2 0.00 0.00 0.00 63 1015.0
20260831203601 33 70 0.0 12.9 0.00 0.00 0.00 61 1015.0
20260831203025 33 44 1.6 12.9 0.00 0.00 0.00 61 1015.0
20260831202525 33 286 0.0 0.0 0.00 0.00 0.00 60 1015.0
20260831202028 33 90 0.0 3.2 0.00 0.00 0.00 61 1015.1
20260831201532 33 83 0.0 3.2 0.00 0.00 0.00 62 1015.1
20260831201032 33 334 0.0 3.2 0.00 0.00 0.00 64 1015.1
20260831200554 33 313 0.0 0.0 0.00 0.00 0.00 65 1015.2
20260831200058 33 264 0.0 0.0 0.00 0.00 0.00 63 1015.2
20260831195538 33 332 0.0 6.4 0.00 0.00 0.00 63 1015.2
20260831195040 33 332 1.6 6.4 0.00 0.00 0.00 65 1015.2
20260831194544 33 332 0.0 6.4 0.00 0.00 0.00 67 1015.2
20260831194025 33 332 0.0 3.2 0.00 0.00 0.00 66 1015.3
20260831193547 33 332 0.0 0.0 0.00 0.00 0.00 65 1015.4
20260831193034 33 332 0.0 0.0 0.00 0.00 0.00 63 1015.4
20260831192536 33 332 0.0 1.6 0.00 0.00 0.00 62 1015.4
20260831192041 33 332 0.0 1.6 0.00 0.00 0.00 61 1015.4
20260831191605 33 296 0.0 9.7 0.00 0.00 0.00 62 1015.4
20260831191026 33 42 0.0 9.7 0.00 0.00 0.00 65 1015.5
20260831190548 33 344 0.0 0.0 0.00 0.00 0.00 67 1015.6
20260831190052 33 61 0.0 0.0 0.00 0.00 0.00 66 1015.6
20260831185531 33 75 0.0 0.0 0.00 0.00 0.00 65 1015.6
20260831185054 33 75 0.0 0.0 0.00 0.00 0.00 64 1015.6
20260831184537 33 125 0.0 3.2 0.00 0.00 0.00 66 1015.6
20260831184038 33 80 0.0 1.6 0.00 0.00 0.00 68 1015.7
20260831183541 32 346 0.0 0.0 0.00 0.00 0.00 67 1015.8
20260831183024 32 5 0.0 6.4 0.00 0.00 0.00 69 1015.9
20260831182547 32 77 0.0 6.4 0.00 0.00 0.00 67 1016.0
20260831182028 32 79 0.0 8.0 0.00 0.00 0.00 66 1016.1
20260831181533 33 31 1.6 11.3 0.00 0.00 0.00 65 1016.2
20260831181038 33 60 3.2 8.0 0.00 0.00 0.00 66 1016.2
20260831180541 33 102 0.0 3.2 0.00 0.00 0.00 66 1016.3
20260831180026 33 99 0.0 12.9 0.00 0.00 0.00 64 1016.4
20260831175527 33 96 3.2 12.9 0.00 0.00 0.00 66 1016.4
20260831175029 33 84 1.6 6.4 0.00 0.00 0.00 65 1016.4
20260831174532 33 283 0.0 1.6 0.00 0.00 0.00 67 1016.4
20260831174032 33 350 0.0 3.2 0.00 0.00 0.00 64 1016.5
20260831173536 33 78 0.0 0.0 0.00 0.00 0.00 64 1016.6
20260831173059 33 335 0.0 1.6 0.00 0.00 0.00 66 1016.6
20260831172540 33 335 0.0 3.2 0.00 0.00 0.00 67 1016.7
20260831172024 33 61 1.6 4.8 0.00 0.00 0.00 66 1016.9
20260831171528 32 337 0.0 6.4 0.00 0.00 0.00 66 1017.0
20260831171032 32 337 0.0 8.0 0.00 0.00 0.00 68 1017.0
20260831170536 32 33 4.8 8.0 0.00 0.00 0.00 66 1017.0
20260831170040 32 336 1.6 6.4 0.00 0.00 0.00 69 1017.2
20260831165542 32 259 1.6 3.2 0.00 0.00 0.00 68 1017.2
20260831165043 32 169 0.0 8.0 0.00 0.00 0.00 69 1017.1
20260831164527 32 88 3.2 9.7 0.00 0.00 0.00 69 1017.2
20260831164027 32 73 1.6 9.7 0.00 0.00 0.00 70 1017.2
20260831163531 32 180 1.6 9.7 0.00 0.00 0.00 72 1017.2
20260831163035 31 39 0.0 9.7 0.00 0.00 0.00 71 1017.2
20260831162536 31 58 0.0 9.7 0.00 0.00 0.00 73 1017.3
20260831162039 31 39 0.0 9.7 0.00 0.00 0.00 72 1017.3
20260831161526 31 39 1.6 9.7 0.00 0.00 0.00 72 1017.3
20260831161028 31 82 1.6 9.7 0.00 0.00 0.00 70 1017.4
20260831160530 31 51 1.6 8.0 0.00 0.00 0.00 73 1017.5
20260831160034 31 91 3.2 8.0 0.00 0.00 0.00 73 1017.6
20260831155535 31 69 1.6 6.4 0.00 0.00 0.00 75 1017.6
20260831155038 31 24 1.6 3.2 0.00 0.00 0.00 76 1017.5
20260831154541 30 92 0.0 9.7 0.00 0.00 0.00 76 1017.5
20260831154042 30 84 6.4 9.7 0.00 0.00 0.00 78 1017.5
20260831153525 30 75 1.6 11.3 0.00 0.00 0.00 79 1017.6
20260831153030 30 65 1.6 11.3 0.00 0.00 0.00 80 1017.6
20260831152531 29 105 1.6 8.0 0.00 0.00 0.00 82 1017.6
20260831152032 29 118 1.6 6.4 0.00 0.00 0.00 83 1017.7
20260831151557 28 355 0.0 1.6 0.00 0.00 0.00 83 1017.7
20260831151036 28 127 0.0 3.2 0.00 0.00 0.00 84 1017.7
20260831150559 28 43 0.0 3.2 0.00 0.00 0.00 85 1017.7
20260831150044 28 61 0.0 6.4 0.00 0.00 0.00 86 1017.6
20260831145526 28 53 1.6 6.4 0.00 0.00 0.00 87 1017.6
20260831145048 28 90 0.0 0.0 0.00 0.00 0.00 88 1017.5
20260831144531 27 89 0.0 0.0 0.00 0.00 0.00 88 1017.5
20260831144052 27 324 0.0 6.4 0.00 0.00 0.00 88 1017.5
20260831143533 27 284 0.0 11.3 0.00 0.00 0.00 88 1017.5
20260831143037 27 45 3.2 11.3 0.00 0.00 0.00 89 1017.5
20260831142538 27 73 3.2 8.0 0.00 0.00 0.00 90 1017.5
20260831142041 27 65 0.0 3.2 0.00 0.00 0.00 90 1017.6
20260831141525 26 65 1.6 6.4 0.00 0.00 0.00 90 1017.6
20260831141027 26 51 0.0 3.2 0.00 0.00 0.00 90 1017.6
20260831140528 26 51 0.0 6.4 0.00 0.00 0.00 90 1017.6
20260831140032 26 51 0.0 8.0 0.00 0.00 0.00 91 1017.6
20260831135538 26 64 3.2 8.0 0.00 0.00 0.00 92 1017.5
20260831135039 26 102 0.0 1.6 0.00 0.00 0.00 92 1017.5
20260831134544 26 109 0.0 3.2 0.00 0.00 0.00 93 1017.5
20260831134023 26 55 0.0 6.4 0.00 0.00 0.00 94 1017.5
20260831133526 25 14 1.6 3.2 0.00 0.00 0.00 94 1017.5
20260831133031 25 37 0.0 1.6 0.00 0.00 0.00 94 1017.5
20260831132532 25 63 0.0 3.2 0.00 0.00 0.00 94 1017.4
20260831132034 25 73 0.0 3.2 0.00 0.00 0.00 95 1017.3
20260831131539 25 73 0.0 0.0 0.00 0.00 0.00 95 1017.4
20260831131040 25 73 0.0 0.0 0.00 0.00 0.00 95 1017.4
20260831130542 25 67 0.0 0.0 0.00 0.00 0.00 96 1017.3
20260831130045 25 112 0.0 0.0 0.00 0.00 0.00 96 1017.3
20260831125545 25 15 0.0 0.0 0.00 0.00 0.00 96 1017.3
20260831125027 24 15 0.0 0.0 0.00 0.00 0.00 96 1017.3
20260831124550 24 71 0.0 0.0 0.00 0.00 0.00 97 1017.3
20260831124030 24 77 0.0 0.0 0.00 0.00 0.00 97 1017.1
20260831123536 24 77 0.0 0.0 0.00 0.00 0.00 97 1017.1
20260831123042 24 77 0.0 0.0 0.00 0.00 0.00 97 1017.0
20260831122523 24 78 0.0 0.0 0.00 0.00 0.00 97 1017.0
20260831122026 24 32 0.0 3.2 0.00 0.00 0.00 97 1016.9
20260831121531 24 32 0.0 3.2 0.00 0.00 0.00 97 1016.9
20260831121032 23 31 0.0 0.0 0.00 0.00 0.00 97 1016.8
20260831120534 23 31 0.0 0.0 0.00 0.00 0.00 97 1016.8
20260831120058 23 31 0.0 0.0 0.00 0.00 0.00 97 1016.7
20260831115539 23 31 0.0 0.0 0.00 0.00 0.00 97 1016.7
20260831115040 23 31 0.0 0.0 0.00 0.00 0.00 97 1016.6
20260831114545 23 31 0.0 0.0 0.00 0.00 0.00 97 1016.6
20260831114027 23 31 0.0 0.0 0.00 0.00 0.00 96 1016.5
20260831113533 23 31 0.0 0.0 0.00 0.00 0.00 96 1016.4
20260831113058 23 31 0.0 0.0 0.00 0.00 0.00 96 1016.4
20260831112539 23 31 0.0 0.0 0.00 0.00 0.00 96 1016.2
20260831112041 23 31 0.0 0.0 0.00 0.00 0.00 96 1016.1
20260831111525 23 31 0.0 0.0 0.00 0.00 0.00 96 1016.1
20260831111026 23 31 0.0 0.0 0.00 0.00 0.00 96 1016.0
20260831110529 23 31 0.0 0.0 0.00 0.00 0.00 96 1015.9
20260831110052 23 31 0.0 0.0 0.00 0.00 0.00 96 1015.9
20260831105534 23 31 0.0 0.0 0.00 0.00 0.00 96 1015.8
20260831105056 23 31 0.0 0.0 0.00 0.00 0.00 96 1015.8
20260831104540 23 31 0.0 0.0 0.00 0.00 0.00 96 1015.7
20260831104040 23 31 0.0 0.0 0.00 0.00 0.00 96 1015.7
20260831103523 23 31 0.0 0.0 0.00 0.00 0.00 96 1015.7
20260831103027 23 31 0.0 0.0 0.00 0.00 0.00 96 1015.6
20260831102533 23 31 0.0 0.0 0.00 0.00 0.00 96 1015.5
20260831102035 23 31 0.0 0.0 0.00 0.00 0.00 96 1015.4
20260831101540 24 31 0.0 0.0 0.00 0.00 0.00 96 1015.4
20260831101040 24 31 0.0 0.0 0.00 0.00 0.00 95 1015.5
20260831100543 24 31 0.0 0.0 0.00 0.00 0.00 95 1015.4
20260831100027 24 31 0.0 0.0 0.00 0.00 0.00 95 1015.4
20260831095529 24 31 0.0 0.0 0.00 0.00 0.00 95 1015.5
20260831095031 24 31 0.0 0.0 0.00 0.00 0.00 95 1015.6
20260831094531 24 31 0.0 0.0 0.00 0.00 0.00 95 1015.6
20260831094033 24 31 0.0 0.0 0.00 0.00 0.00 95 1015.6
20260831093535 24 31 0.0 0.0 0.00 0.00 0.00 95 1015.6
20260831093037 24 31 0.0 0.0 0.00 0.00 0.00 95 1015.6
20260831092544 24 31 0.0 0.0 0.00 0.00 0.00 95 1015.5
20260831092045 24 31 0.0 0.0 0.00 0.00 0.00 95 1015.4
20260831091529 24 31 0.0 0.0 0.00 0.00 0.00 95 1015.4
20260831091049 24 31 0.0 0.0 0.00 0.00 0.00 95 1015.5
20260831090532 24 31 0.0 0.0 0.00 0.00 0.00 95 1015.5
20260831090036 24 31 0.0 0.0 0.00 0.00 0.00 95 1015.5
20260831085558 24 31 0.0 0.0 0.00 0.00 0.00 94 1015.4
20260831085039 24 31 0.0 0.0 0.00 0.00 0.00 94 1015.4
20260831084544 24 31 0.0 0.0 0.00 0.00 0.00 94 1015.4
20260831084026 24 31 0.0 0.0 0.00 0.00 0.00 94 1015.4
20260831083529 24 31 0.0 0.0 0.00 0.00 0.00 94 1015.4
20260831083032 24 31 0.0 0.0 0.00 0.00 0.00 94 1015.4
20260831082534 24 31 0.0 0.0 0.00 0.00 0.00 94 1015.4
20260831082058 24 31 0.0 0.0 0.00 0.00 0.00 94 1015.4
20260831081524 24 31 0.0 0.0 0.00 0.00 0.00 94 1015.4
20260831081027 25 31 0.0 0.0 0.00 0.00 0.00 94 1015.5
20260831080549 25 31 0.0 0.0 0.00 0.00 0.00 94 1015.4
20260831080033 25 31 0.0 1.6 0.00 0.00 0.00 94 1015.4
20260831075535 25 35 0.0 0.0 0.00 0.00 0.00 94 1015.5
20260831075039 25 35 0.0 0.0 0.00 0.00 0.00 93 1015.4
20260831074540 25 35 0.0 0.0 0.00 0.00 0.00 93 1015.4
20260831074043 25 35 0.0 0.0 0.00 0.00 0.00 93 1015.5
20260831073523 25 35 0.0 0.0 0.00 0.00 0.00 93 1015.4
20260831073028 25 35 0.0 0.0 0.00 0.00 0.00 93 1015.5
20260831072530 25 35 0.0 0.0 0.00 0.00 0.00 93 1015.4
20260831072052 25 35 0.0 0.0 0.00 0.00 0.00 92 1015.4
20260831071537 25 35 0.0 0.0 0.00 0.00 0.00 92 1015.5
20260831071058 25 35 0.0 0.0 0.00 0.00 0.00 92 1015.4
20260831070600 25 35 0.0 0.0 0.00 0.00 0.00 92 1015.4
20260831070027 25 35 0.0 0.0 0.00 0.00 0.00 92 1015.4
20260831065529 25 35 0.0 0.0 0.00 0.00 0.00 92 1015.4
20260831065032 25 35 0.0 0.0 0.00 0.00 0.00 92 1015.4
20260831064536 25 53 0.0 0.0 0.00 0.00 0.00 92 1015.4
20260831064037 25 53 0.0 0.0 0.00 0.00 0.00 92 1015.5